Location: Bennemühlen
(52.5740°N, 9.7135°E)
Time: 01:15:54
(UTC+00:00)

A-11 Canister half - Pass Details

Date: 24 February 2026
Orbit: 1512 x 1687 km, 47.2° (Epoch: 8 March)

Event Time Altitude Azimuth Distance (km) Brightness Sun altitude
Rises 00:44:50 0° 285° (WNW) 4,915 - -44.6°
Reaches altitude 10° 00:48:20 10° 277° (W) 3,906 - -44.4°
Maximum altitude 00:57:00 36° 217° (SW) 2,377 - -43.8°
Drops below altitude 10° 01:05:24 10° 156° (SSE) 3,775 - -43.2°
Sets 01:08:45 0° 148° (SSE) 4,733 - -42.9°
